User: anonymous   Login
Location: SAPM � Hemmingford
(45.0500°N, 73.5833°W)
Time: 22:17:01
(UTC-04:00)
Language:

Cosmos 1603 - Orbit

View from above orbital plane
View from above orbital plane
View from above satellite
View from above satellite

Ground track
Ground track

The orbit data is extracted from the following two-line orbital elements,

1 15333U 84106A   15212.13322227 -.00000158  00000-0 -58201-4 0  9993
2 15333 071.0276 090.9870 0019287 180.2885 334.2912 14.14012143591147
Epoch (UTC): 31 July 2015 03:11:50
Eccentricity: 0.0019287
inclination: 71.0276°
perigee height: 832 km
apogee height: 859 km
right ascension of ascending node: 90.9870°
argument of perigee: 180.2885°
revolutions per day: 14.14012143
mean anomaly at epoch: 334.2912°
orbit number at epoch: 59114

The dashed part of the orbit path shows where the satellite is in the earth's shadow,  

DLR